Date String (YYYY-MM-DD hh:mm:ss) UTC,Instrument flags,Ambient pressure (hPa),Sample flow (lpm),Bypass flow (lpm),Sample temperature (°C),Ambient temperature (°C),ASC tube jacket temperature (°C),LED temperature (°C),Box temperature (°C),Sample RH (%),Span deviation,Mass concentration (μg/m³),Mass concentration (μg/m³),Mass concentration (μg/m³)
DateTimeUTC,F1_M11,P_M11,Q1_M11,Q2_M11,T1_M11,T2_M11,T3_M11,T4_M11,T5_M11,U1_M11,ZSPAN_M11,X0_M11,X2_M11,X1_M11
2022-05-08 04:00:00,,0814.1,5.01,0.00,28.3,27.5,00.0,37.4,30.1,19.4,0000.0,0023.25,0008.39,0003.03
2022-05-08 04:01:00,,0814.1,5.00,0.00,28.3,27.5,00.0,37.4,30.1,19.4,0000.0,0023.62,0008.34,0003.03
2022-05-08 04:02:00,,0814.0,5.00,0.00,28.3,27.5,00.0,37.4,30.1,19.5,0000.0,0023.91,0008.30,0003.05
2022-05-08 04:03:00,,0814.0,5.01,0.00,28.3,27.5,00.0,37.4,30.1,19.6,0000.0,0023.06,0008.30,0003.06
2022-05-08 04:04:00,,0814.0,5.00,0.00,28.3,27.5,00.0,37.4,30.1,19.6,0000.0,0022.91,0008.34,0003.06
2022-05-08 04:05:00,,0814.0,4.99,0.00,28.3,27.5,00.0,37.4,30.1,19.7,0000.0,0022.72,0008.40,0003.07
2022-05-08 04:06:00,,0814.0,5.00,0.00,28.3,27.5,00.0,37.4,30.0,19.7,0000.0,0023.12,0008.39,0003.08
2022-05-08 04:07:00,,0813.9,5.00,0.00,28.3,27.5,00.0,37.3,30.0,19.7,0000.0,0023.97,0008.45,0003.11
2022-05-08 04:08:00,,0813.9,4.99,0.00,28.3,27.5,00.0,37.3,30.1,19.8,0000.0,0024.52,0008.54,0003.14
2022-05-08 04:09:00,,0814.1,5.00,0.00,28.3,27.6,00.0,37.3,30.1,19.9,0000.0,0024.80,0008.61,0003.16
2022-05-08 04:10:00,,0813.8,5.01,0.00,28.3,27.6,00.0,37.3,30.2,19.9,0000.0,0025.01,0008.62,0003.18
2022-05-08 04:11:00,,0814.0,5.00,0.00,28.3,27.7,00.0,37.4,30.2,19.8,0000.0,0025.32,0008.51,0003.19
2022-05-08 04:12:00,,0813.8,5.00,0.00,28.4,27.7,00.0,37.4,30.2,19.7,0000.0,0025.41,0008.52,0003.20
2022-05-08 04:13:00,,0813.8,5.00,0.00,28.4,27.8,00.0,37.4,30.3,19.7,0000.0,0024.69,0008.57,0003.21
2022-05-08 04:14:00,,0813.9,5.00,0.00,28.4,27.8,00.0,37.4,30.3,19.7,0000.0,0024.81,0008.58,0003.21
2022-05-08 04:15:00,,0814.0,5.00,0.00,28.5,27.9,00.0,37.4,30.3,19.7,0000.0,0025.35,0008.65,0003.22
2022-05-08 04:16:00,,0814.0,5.00,0.00,28.5,27.9,00.0,37.4,30.3,19.8,0000.0,0025.69,0008.71,0003.24
2022-05-08 04:17:00,,0814.3,4.99,0.00,28.5,27.9,00.0,37.4,30.3,19.9,0000.0,0025.21,0008.80,0003.24
2022-05-08 04:18:00,,0814.1,5.00,0.00,28.5,27.9,00.0,37.4,30.3,19.7,0000.0,0025.08,0008.77,0003.24
2022-05-08 04:19:00,,0814.0,5.00,0.00,28.5,27.8,00.0,37.4,30.3,19.6,0000.0,0024.89,0008.72,0003.25
2022-05-08 04:20:00,,0814.0,5.00,0.00,28.4,27.8,00.0,37.4,30.2,19.6,0000.0,0024.71,0008.66,0003.25
2022-05-08 04:21:00,,0814.0,5.00,0.00,28.4,27.7,00.0,37.4,30.2,19.6,0000.0,0025.08,0008.79,0003.28
2022-05-08 04:22:00,,0814.0,5.00,0.00,28.4,27.7,00.0,37.4,30.2,19.6,0000.0,0024.76,0008.95,0003.30
2022-05-08 04:23:00,,0814.2,5.00,0.00,28.4,27.7,00.0,37.4,30.2,19.5,0000.0,0024.68,0008.93,0003.32
2022-05-08 04:24:00,,0813.9,5.00,0.00,28.4,27.6,00.0,37.4,30.1,19.5,0000.0,0025.32,0008.93,0003.34
2022-05-08 04:25:00,,0814.0,4.99,0.00,28.3,27.5,00.0,37.4,30.1,19.6,0000.0,0026.69,0009.01,0003.36
2022-05-08 04:26:00,,0814.0,5.00,0.00,28.3,27.5,00.0,37.4,30.1,19.6,0000.0,0027.95,0008.94,0003.37
2022-05-08 04:27:00,,0814.0,5.01,0.00,28.3,27.5,00.0,37.4,30.0,19.5,0000.0,0028.37,0008.95,0003.37
2022-05-08 04:28:00,,0814.0,4.99,0.00,28.2,27.4,00.0,37.4,30.0,19.6,0000.0,0029.52,0008.94,0003.39
2022-05-08 04:29:00,,0814.0,4.99,0.00,28.2,27.4,00.0,37.3,30.0,19.7,0000.0,0029.74,0009.01,0003.41
2022-05-08 04:30:00,,0814.0,5.00,0.00,28.2,27.3,00.0,37.3,29.9,19.8,0000.0,0029.64,0009.06,0003.42
2022-05-08 04:31:00,,0814.0,5.00,0.00,28.2,27.3,00.0,37.3,29.9,19.9,0000.0,0029.71,0009.08,0003.44
2022-05-08 04:32:00,,0814.0,5.00,0.00,28.1,27.3,00.0,37.3,29.8,19.9,0000.0,0029.66,0009.09,0003.45
2022-05-08 04:33:00,,0814.3,5.00,0.00,28.1,27.3,00.0,37.3,29.8,19.9,0000.0,0030.12,0009.06,0003.47
2022-05-08 04:34:00,,0814.2,5.00,0.00,28.1,27.2,00.0,37.3,29.8,19.9,-001.0,0030.68,0009.03,0003.47
2022-05-08 04:35:00,,0814.1,5.00,0.00,28.1,27.2,00.0,37.2,29.8,20.0,-001.2,0030.12,0009.01,0003.45
2022-05-08 04:36:00,,0814.1,5.01,0.00,28.0,27.1,00.0,37.2,29.8,20.2,-000.0,0029.14,0008.97,0003.47
2022-05-08 04:37:00,,0814.1,5.01,0.00,28.0,27.1,00.0,37.2,29.8,20.2,0000.1,0028.39,0009.07,0003.47
2022-05-08 04:38:00,,0814.0,5.00,0.00,28.0,27.1,00.0,37.2,29.7,20.1,0000.0,0028.16,0009.10,0003.46
2022-05-08 04:39:00,,0814.1,5.00,0.00,28.0,27.1,00.0,37.1,29.7,20.2,0000.0,0027.04,0009.07,0003.44
2022-05-08 04:40:00,,0814.0,5.00,0.00,28.0,27.1,00.0,37.1,29.7,20.3,0000.0,0026.21,0009.00,0003.42
2022-05-08 04:41:00,,0814.1,5.00,0.00,28.0,27.1,00.0,37.1,29.7,20.3,0000.0,0026.52,0008.93,0003.40
2022-05-08 04:42:00,,0814.1,5.00,0.00,27.9,27.1,00.0,37.1,29.7,20.2,0000.0,0026.47,0008.92,0003.38
2022-05-08 04:43:00,,0814.1,5.01,0.00,27.9,27.0,00.0,37.1,29.6,20.0,0000.0,0025.77,0008.80,0003.34
2022-05-08 04:44:00,,0814.2,5.00,0.00,27.9,27.0,00.0,37.0,29.6,20.1,0000.0,0024.91,0008.74,0003.31
2022-05-08 04:45:00,,0814.2,5.00,0.00,27.8,26.9,00.0,37.0,29.6,20.2,0000.0,0024.01,0008.77,0003.29
2022-05-08 04:46:00,,0814.3,5.00,0.00,27.8,26.9,00.0,37.0,29.5,20.2,0000.0,0024.69,0008.92,0003.29
2022-05-08 04:47:00,,0814.4,5.00,0.00,27.8,26.8,00.0,37.0,29.5,20.2,0000.0,0024.18,0008.83,0003.25
2022-05-08 04:48:00,,0814.4,5.00,0.00,27.8,26.8,00.0,36.9,29.5,20.3,0000.0,0023.25,0008.71,0003.22
2022-05-08 04:49:00,,0814.4,4.99,0.00,27.7,26.8,00.0,36.9,29.5,20.3,0000.0,0023.06,0008.56,0003.22
2022-05-08 04:50:00,,0814.4,5.00,0.00,27.7,26.8,00.0,36.9,29.4,20.2,0000.0,0023.46,0008.49,0003.22
2022-05-08 04:51:00,,0814.4,5.00,0.00,27.7,26.7,00.0,36.9,29.4,20.2,0000.0,0023.44,0008.47,0003.22
2022-05-08 04:52:00,,0814.4,5.00,0.00,27.7,26.7,00.0,36.9,29.4,20.4,0000.0,0023.83,0008.47,0003.22
2022-05-08 04:53:00,,0814.4,4.99,0.00,27.6,26.7,00.0,36.8,29.4,20.5,0000.0,0024.27,0008.53,0003.21
2022-05-08 04:54:00,,0814.4,5.00,0.00,27.6,26.7,00.0,36.8,29.3,20.4,0000.0,0024.53,0008.53,0003.21
2022-05-08 04:55:00,,0814.3,5.00,0.00,27.6,26.7,00.0,36.8,29.3,20.3,0000.0,0025.22,0008.50,0003.20
2022-05-08 04:56:00,,0814.4,5.00,0.00,27.6,26.6,00.0,36.8,29.3,20.3,0000.0,0025.77,0008.40,0003.20
2022-05-08 04:57:00,,0814.4,5.00,0.00,27.5,26.6,00.0,36.8,29.3,20.4,0000.0,0024.99,0008.13,0003.19
2022-05-08 04:58:00,,0814.4,4.99,0.00,27.5,26.6,00.0,36.7,29.2,20.5,0000.0,0025.37,0008.14,0003.21
2022-05-08 04:59:00,,0814.3,4.99,0.00,27.5,26.6,00.0,36.7,29.2,20.4,0000.0,0025.42,0008.15,0003.22
